FBZ5051 SASJ-SABE

Flight info

Callsign FBZ5051
Flight time 1h 38m
Altitude 37000
Route ASODO1G ASODO UT672 MULTA UW24 SNT SNT8Q
Aircraft B738/M-SDE2E3FGHIRWXY/LB1

Departure

Time 2026-05-07 21:51
Airport Gobernador Horacio Guzman International Airport (SASJ)

Arrival

Time 2026-05-07 23:30
Airport Aeroparque Jorge Newbery (SABE)
Time Latitude Longitude Altitude Speed Heading
2026-05-07 21:32 -24.38677 -65.09419 3004 ft 0 kts 86°
2026-05-07 21:40 -24.38677 -65.09420 3034 ft 2 kts 86°
2026-05-07 21:40 -24.38682 -65.09442 3037 ft 2 kts 55°
2026-05-07 21:41 -24.38690 -65.09452 3038 ft 2 kts 33°
2026-05-07 21:41 -24.38705 -65.09458 3040 ft 2 kts
2026-05-07 21:41 -24.38725 -65.09456 3042 ft 1 kts 339°
2026-05-07 21:41 -24.38729 -65.09454 3041 ft 0 kts 334°
2026-05-07 21:45 -24.38713 -65.09462 3040 ft 9 kts 338°
2026-05-07 21:46 -24.38612 -65.09521 3042 ft 15 kts 333°
2026-05-07 21:46 -24.38587 -65.09537 3043 ft 0 kts 331°
2026-05-07 21:46 -24.38558 -65.09567 3045 ft 8 kts 281°
2026-05-07 21:46 -24.38598 -65.09665 3062 ft 20 kts 240°
2026-05-07 21:47 -24.38667 -65.09797 3077 ft 20 kts 240°
2026-05-07 21:47 -24.38690 -65.09916 3087 ft 13 kts 315°
2026-05-07 21:47 -24.38563 -65.09998 3088 ft 33 kts 330°
2026-05-07 21:47 -24.38307 -65.10162 3087 ft 46 kts 331°
2026-05-07 21:48 -24.38054 -65.10318 3089 ft 19 kts 321°
2026-05-07 21:48 -24.38064 -65.10430 3095 ft 16 kts 217°
2026-05-07 21:48 -24.38178 -65.10460 3093 ft 18 kts 167°
2026-05-07 21:48 -24.38235 -65.10433 3095 ft 1 kts 150°
2026-05-07 21:49 -24.38241 -65.10429 3097 ft 1 kts 150°
2026-05-07 21:49 -24.38249 -65.10424 3098 ft 1 kts 151°
2026-05-07 21:49 -24.38258 -65.10419 3096 ft 2 kts 151°
2026-05-07 21:49 -24.38266 -65.10414 3095 ft 0 kts 151°
2026-05-07 21:50 -24.38353 -65.10360 3094 ft 48 kts 150°
2026-05-07 21:51 -24.38874 -65.10032 3092 ft 123 kts 150°
2026-05-07 21:51 -24.39801 -65.09454 3164 ft 179 kts 152°
2026-05-07 21:51 -24.40947 -65.08704 3761 ft 200 kts 152°
2026-05-07 21:51 -24.42194 -65.07940 4541 ft 210 kts 154°
2026-05-07 21:52 -24.43545 -65.07169 5128 ft 227 kts 154°
2026-05-07 21:52 -24.44978 -65.06362 5686 ft 237 kts 153°
2026-05-07 21:52 -24.46467 -65.05507 6162 ft 253 kts 152°
2026-05-07 21:52 -24.48064 -65.04574 6713 ft 267 kts 152°
2026-05-07 21:53 -24.49739 -65.03587 7268 ft 280 kts 152°
2026-05-07 21:53 -24.51515 -65.02549 7669 ft 299 kts 152°
2026-05-07 21:53 -24.53412 -65.01487 8222 ft 310 kts 153°
2026-05-07 21:53 -24.55301 -65.00381 9207 ft 304 kts 147°
2026-05-07 21:54 -24.56995 -64.98993 10036 ft 307 kts 138°
2026-05-07 21:54 -24.58539 -64.97299 10441 ft 322 kts 131°
2026-05-07 21:54 -24.60008 -64.95380 10984 ft 330 kts 128°
2026-05-07 21:54 -24.61291 -64.93339 12029 ft 318 kts 123°
2026-05-07 21:55 -24.62400 -64.91244 12818 ft 320 kts 121°
2026-05-07 21:55 -24.63576 -64.89138 13422 ft 323 kts 130°
2026-05-07 21:55 -24.65056 -64.87291 14054 ft 321 kts 142°
2026-05-07 21:55 -24.66825 -64.85776 14412 ft 329 kts 154°
2026-05-07 21:56 -24.68889 -64.84560 14551 ft 345 kts 159°
2026-05-07 21:56 -24.71114 -64.83395 14691 ft 362 kts 160°
2026-05-07 21:56 -24.73453 -64.82194 14903 ft 377 kts 160°
2026-05-07 21:56 -24.75841 -64.80951 15366 ft 382 kts 160°
2026-05-07 21:57 -24.78241 -64.79678 15945 ft 384 kts 160°
2026-05-07 21:57 -24.80646 -64.78387 16488 ft 386 kts 160°
2026-05-07 21:57 -24.83034 -64.77097 17026 ft 389 kts 160°
2026-05-07 21:57 -24.85495 -64.75763 17625 ft 390 kts 160°
2026-05-07 21:58 -24.87905 -64.74455 18168 ft 392 kts 160°
2026-05-07 21:58 -24.90357 -64.73122 18695 ft 393 kts 160°
2026-05-07 21:58 -24.92810 -64.71788 19254 ft 393 kts 160°
2026-05-07 21:58 -24.95260 -64.70457 19797 ft 394 kts 161°
2026-05-07 21:59 -24.97725 -64.69117 20273 ft 396 kts 160°
2026-05-07 21:59 -25.00197 -64.67773 20767 ft 397 kts 161°
2026-05-07 21:59 -25.02676 -64.66422 21308 ft 398 kts 161°
2026-05-07 21:59 -25.05156 -64.65065 21834 ft 398 kts 161°
2026-05-07 22:00 -25.07639 -64.63704 22343 ft 400 kts 161°
2026-05-07 22:00 -25.10134 -64.62337 22828 ft 401 kts 161°
2026-05-07 22:00 -25.12637 -64.60964 23298 ft 403 kts 161°
2026-05-07 22:00 -25.15153 -64.59584 23740 ft 404 kts 161°
2026-05-07 22:01 -25.17674 -64.58201 24116 ft 406 kts 161°
2026-05-07 22:01 -25.20213 -64.56808 24470 ft 409 kts 161°
2026-05-07 22:01 -25.22777 -64.55424 24804 ft 410 kts 162°
2026-05-07 22:01 -25.25389 -64.54149 25173 ft 410 kts 164°
2026-05-07 22:02 -25.28026 -64.52936 25540 ft 411 kts 165°
2026-05-07 22:02 -25.30680 -64.51739 25892 ft 413 kts 165°
2026-05-07 22:02 -25.33350 -64.50534 26228 ft 416 kts 165°
2026-05-07 22:02 -25.36032 -64.49316 26564 ft 418 kts 165°
2026-05-07 22:03 -25.38687 -64.48097 27246 ft 411 kts 165°
2026-05-07 22:03 -25.41350 -64.46871 27347 ft 420 kts 164°
2026-05-07 22:03 -25.44070 -64.45619 27484 ft 426 kts 164°
2026-05-07 22:03 -25.46814 -64.44350 27787 ft 428 kts 164°
2026-05-07 22:04 -25.49567 -64.43073 28134 ft 429 kts 164°
2026-05-07 22:04 -25.52323 -64.41792 28452 ft 431 kts 164°
2026-05-07 22:04 -25.55097 -64.40502 28742 ft 433 kts 164°
2026-05-07 22:04 -25.57846 -64.39225 29015 ft 435 kts 164°
2026-05-07 22:05 -25.60646 -64.37923 29281 ft 437 kts 164°
2026-05-07 22:05 -25.63461 -64.36614 29567 ft 439 kts 164°
2026-05-07 22:05 -25.66285 -64.35300 29861 ft 441 kts 164°
2026-05-07 22:05 -25.69116 -64.33982 30114 ft 442 kts 164°
2026-05-07 22:06 -25.71965 -64.32656 30300 ft 445 kts 164°
2026-05-07 22:06 -25.74826 -64.31323 30532 ft 447 kts 164°
2026-05-07 22:06 -25.77688 -64.29987 30853 ft 445 kts 164°
2026-05-07 22:06 -25.80540 -64.28655 31184 ft 444 kts 164°
2026-05-07 22:07 -25.83388 -64.27325 31452 ft 445 kts 164°
2026-05-07 22:07 -25.86240 -64.25993 31737 ft 444 kts 164°
2026-05-07 22:07 -25.89084 -64.24664 32081 ft 442 kts 164°
2026-05-07 22:07 -25.91915 -64.23340 32413 ft 441 kts 164°
2026-05-07 22:08 -25.94745 -64.22017 32675 ft 441 kts 164°
2026-05-07 22:08 -25.97539 -64.20710 32967 ft 441 kts 164°
2026-05-07 22:08 -26.00356 -64.19391 33316 ft 438 kts 164°
2026-05-07 22:08 -26.03160 -64.18077 33643 ft 437 kts 165°
2026-05-07 22:09 -26.05966 -64.16762 33884 ft 437 kts 164°
2026-05-07 22:09 -26.08771 -64.15448 34125 ft 437 kts 164°
2026-05-07 22:09 -26.11559 -64.14109 34350 ft 438 kts 162°
2026-05-07 22:09 -26.14313 -64.12612 34500 ft 442 kts 160°
2026-05-07 22:10 -26.17053 -64.11028 34638 ft 445 kts 160°
2026-05-07 22:10 -26.19799 -64.09441 34846 ft 444 kts 160°
2026-05-07 22:10 -26.22548 -64.07876 35089 ft 443 kts 160°
2026-05-07 22:10 -26.25300 -64.06325 35252 ft 444 kts 161°
2026-05-07 22:11 -26.28063 -64.04772 35376 ft 446 kts 161°
2026-05-07 22:11 -26.30832 -64.03215 35588 ft 445 kts 161°
2026-05-07 22:11 -26.33591 -64.01660 35820 ft 444 kts 161°
2026-05-07 22:11 -26.36350 -64.00103 35984 ft 445 kts 161°
2026-05-07 22:12 -26.39122 -63.98540 36094 ft 447 kts 161°
2026-05-07 22:12 -26.41897 -63.96972 36289 ft 447 kts 161°
2026-05-07 22:12 -26.44662 -63.95408 36514 ft 446 kts 161°
2026-05-07 22:12 -26.47430 -63.93841 36670 ft 446 kts 161°
2026-05-07 22:13 -26.52860 -63.90758 36559 ft 456 kts 161°
2026-05-07 22:13 -26.55692 -63.89137 36328 ft 459 kts 161°
2026-05-07 22:13 -26.58518 -63.87511 36075 ft 454 kts 161°
2026-05-07 22:14 -26.64093 -63.84385 36249 ft 447 kts 162°
2026-05-07 22:14 -26.66875 -63.82823 36391 ft 447 kts 161°
2026-05-07 22:14 -26.69651 -63.81251 36519 ft 448 kts 161°
2026-05-07 22:15 -26.75221 -63.78076 36736 ft 450 kts 161°
2026-05-07 22:15 -26.78009 -63.76483 36898 ft 449 kts 161°
2026-05-07 22:15 -26.80760 -63.74911 36933 ft 451 kts 161°
2026-05-07 22:16 -26.86364 -63.71706 36953 ft 453 kts 161°
2026-05-07 22:16 -26.91981 -63.68485 36941 ft 454 kts 161°
2026-05-07 22:17 -26.97596 -63.65262 36950 ft 454 kts 161°
2026-05-07 22:17 -27.03258 -63.62014 36951 ft 460 kts 161°
2026-05-07 22:18 -27.11900 -63.57035 36963 ft 470 kts 161°
2026-05-07 22:19 -27.17745 -63.53652 36952 ft 475 kts 161°
2026-05-07 22:19 -27.23635 -63.50237 36954 ft 478 kts 161°
2026-05-07 22:20 -27.29560 -63.46797 36947 ft 480 kts 161°
2026-05-07 22:20 -27.35511 -63.43338 36959 ft 482 kts 161°
2026-05-07 22:21 -27.41480 -63.39866 36942 ft 484 kts 161°
2026-05-07 22:21 -27.47465 -63.36380 36951 ft 484 kts 161°
2026-05-07 22:22 -27.53399 -63.32918 36947 ft 482 kts 162°
2026-05-07 22:22 -27.59387 -63.29421 36946 ft 481 kts 162°
2026-05-07 22:23 -27.65285 -63.25975 36933 ft 480 kts 162°
2026-05-07 22:23 -27.71215 -63.22506 36942 ft 480 kts 162°
2026-05-07 22:24 -27.77144 -63.19033 36939 ft 480 kts 162°
2026-05-07 22:24 -27.83079 -63.15552 36946 ft 481 kts 162°
2026-05-07 22:25 -27.89020 -63.12063 36936 ft 481 kts 162°
2026-05-07 22:25 -27.94969 -63.08564 36942 ft 482 kts 162°
2026-05-07 22:26 -28.00921 -63.05060 36937 ft 483 kts 162°
2026-05-07 22:26 -28.06886 -63.01543 36942 ft 484 kts 162°
2026-05-07 22:27 -28.12863 -62.98016 36969 ft 485 kts 162°
2026-05-07 22:27 -28.18872 -62.94466 36948 ft 488 kts 162°
2026-05-07 22:28 -28.24916 -62.90890 36939 ft 491 kts 162°
2026-05-07 22:28 -28.30982 -62.87295 36944 ft 493 kts 162°
2026-05-07 22:29 -28.37037 -62.83701 36931 ft 495 kts 162°
2026-05-07 22:29 -28.43144 -62.80071 36940 ft 497 kts 162°
2026-05-07 22:30 -28.49274 -62.76424 36936 ft 498 kts 161°
2026-05-07 22:30 -28.55435 -62.72753 36933 ft 500 kts 161°
2026-05-07 22:31 -28.60606 -62.69668 36928 ft 502 kts 161°
2026-05-07 22:31 -28.66796 -62.65971 36941 ft 503 kts 161°
2026-05-07 22:32 -28.73003 -62.62256 36925 ft 505 kts 161°
2026-05-07 22:32 -28.79237 -62.58519 36936 ft 507 kts 161°
2026-05-07 22:33 -28.85461 -62.54785 36925 ft 509 kts 161°
2026-05-07 22:33 -28.91739 -62.50999 36933 ft 511 kts 161°
2026-05-07 22:34 -28.98027 -62.47194 36921 ft 512 kts 161°
2026-05-07 22:34 -29.04330 -62.43371 36927 ft 514 kts 160°
2026-05-07 22:35 -29.10656 -62.39530 36916 ft 515 kts 160°
2026-05-07 22:35 -29.16989 -62.35680 36924 ft 516 kts 160°
2026-05-07 22:36 -29.23338 -62.31815 36915 ft 518 kts 160°
2026-05-07 22:36 -29.29695 -62.27939 36923 ft 519 kts 160°
2026-05-07 22:37 -29.36087 -62.24037 36909 ft 520 kts 160°
2026-05-07 22:37 -29.42483 -62.20126 36914 ft 521 kts 160°
2026-05-07 22:38 -29.48851 -62.16227 36902 ft 523 kts 160°
2026-05-07 22:38 -29.55272 -62.12289 36916 ft 524 kts 160°
2026-05-07 22:39 -29.61706 -62.08337 36904 ft 525 kts 160°
2026-05-07 22:39 -29.68156 -62.04370 36909 ft 526 kts 160°
2026-05-07 22:40 -29.74617 -62.00389 36903 ft 527 kts 160°
2026-05-07 22:40 -29.81092 -61.96391 36909 ft 528 kts 160°
2026-05-07 22:41 -29.87598 -61.92469 36895 ft 524 kts 165°
2026-05-07 22:41 -29.94395 -61.89766 36904 ft 514 kts 172°
2026-05-07 22:42 -30.01254 -61.87389 36886 ft 515 kts 173°
2026-05-07 22:42 -30.08111 -61.84956 36898 ft 517 kts 172°
2026-05-07 22:43 -30.14978 -61.82448 36891 ft 518 kts 172°
2026-05-07 22:43 -30.21842 -61.79920 36901 ft 518 kts 172°
2026-05-07 22:44 -30.28722 -61.77385 36893 ft 519 kts 172°
2026-05-07 22:44 -30.35592 -61.74855 36893 ft 519 kts 172°
2026-05-07 22:45 -30.42739 -61.72219 36881 ft 520 kts 172°
2026-05-07 22:45 -30.49660 -61.69660 36896 ft 520 kts 172°
2026-05-07 22:46 -30.56562 -61.67107 36888 ft 520 kts 172°
2026-05-07 22:46 -30.63460 -61.64563 36895 ft 521 kts 172°
2026-05-07 22:47 -30.70379 -61.62016 36881 ft 521 kts 172°
2026-05-07 22:47 -30.77247 -61.59480 36884 ft 522 kts 172°
2026-05-07 22:48 -30.84173 -61.56915 36877 ft 523 kts 172°
2026-05-07 22:48 -30.91150 -61.54326 36887 ft 524 kts 171°
2026-05-07 22:49 -30.98057 -61.51759 36875 ft 524 kts 171°
2026-05-07 22:49 -31.05014 -61.49170 36873 ft 525 kts 171°
2026-05-07 22:50 -31.11975 -61.46574 36867 ft 525 kts 172°
2026-05-07 22:50 -31.18946 -61.43970 36876 ft 526 kts 171°
2026-05-07 22:51 -31.25912 -61.41363 36867 ft 526 kts 172°
2026-05-07 22:51 -31.32889 -61.38749 36876 ft 527 kts 171°
2026-05-07 22:52 -31.39880 -61.36118 36865 ft 527 kts 171°
2026-05-07 22:52 -31.46868 -61.33474 36873 ft 528 kts 171°
2026-05-07 22:53 -31.53861 -61.30821 36859 ft 528 kts 171°
2026-05-07 22:53 -31.60859 -61.28164 36859 ft 529 kts 171°
2026-05-07 22:54 -31.67859 -61.25501 36854 ft 529 kts 171°
2026-05-07 22:54 -31.74867 -61.22832 36851 ft 530 kts 171°
2026-05-07 22:55 -31.81878 -61.20157 36843 ft 530 kts 172°
2026-05-07 22:55 -31.88892 -61.17477 36851 ft 530 kts 171°
2026-05-07 22:56 -31.95913 -61.14790 36845 ft 531 kts 172°
2026-05-07 22:56 -32.02939 -61.12096 36839 ft 531 kts 171°
2026-05-07 22:57 -32.09965 -61.09398 36835 ft 531 kts 171°
2026-05-07 22:57 -32.17004 -61.06691 36841 ft 532 kts 171°
2026-05-07 22:58 -32.24050 -61.03977 36827 ft 533 kts 171°
2026-05-07 22:58 -32.31111 -61.01252 36836 ft 534 kts 171°
2026-05-07 22:59 -32.38177 -60.98521 36823 ft 534 kts 171°
2026-05-07 22:59 -32.45201 -60.95516 36813 ft 545 kts 162°
2026-05-07 23:00 -32.51656 -60.90569 36837 ft 562 kts 146°
2026-05-07 23:00 -32.57570 -60.84562 36814 ft 564 kts 144°
2026-05-07 23:01 -32.63498 -60.78455 36813 ft 564 kts 145°
2026-05-07 23:01 -32.69463 -60.72403 36817 ft 564 kts 146°
2026-05-07 23:02 -32.75455 -60.66380 36797 ft 565 kts 146°
2026-05-07 23:02 -32.81459 -60.60346 36812 ft 565 kts 146°
2026-05-07 23:03 -32.87438 -60.54310 36797 ft 557 kts 146°
2026-05-07 23:03 -32.90346 -60.51359 36763 ft 542 kts 146°
2026-05-07 23:03 -32.93172 -60.48487 36776 ft 526 kts 146°
2026-05-07 23:04 -32.97817 -60.43781 36806 ft 522 kts 146°
2026-05-07 23:04 -33.03348 -60.38185 36789 ft 520 kts 146°
2026-05-07 23:05 -33.09740 -60.31699 36794 ft 518 kts 146°
2026-05-07 23:05 -33.14323 -60.27034 36788 ft 517 kts 146°
2026-05-07 23:06 -33.19752 -60.21498 36788 ft 516 kts 146°
2026-05-07 23:06 -33.25209 -60.15923 36776 ft 516 kts 146°
2026-05-07 23:07 -33.30661 -60.10346 36685 ft 517 kts 146°
2026-05-07 23:07 -33.33203 -60.07746 36345 ft 527 kts 146°
2026-05-07 23:07 -33.36010 -60.04876 35886 ft 532 kts 145°
2026-05-07 23:07 -33.38809 -60.02002 35458 ft 527 kts 145°
2026-05-07 23:08 -33.41584 -59.99144 35021 ft 523 kts 145°
2026-05-07 23:08 -33.44336 -59.96308 34588 ft 520 kts 144°
2026-05-07 23:08 -33.47073 -59.93488 34173 ft 517 kts 144°
2026-05-07 23:08 -33.49792 -59.90685 33771 ft 514 kts 144°
2026-05-07 23:09 -33.52492 -59.87903 33299 ft 511 kts 144°
2026-05-07 23:09 -33.55182 -59.85127 32827 ft 508 kts 144°
2026-05-07 23:09 -33.57851 -59.82373 32363 ft 505 kts 144°
2026-05-07 23:09 -33.60506 -59.79630 31920 ft 503 kts 143°
2026-05-07 23:10 -33.63149 -59.76897 31466 ft 500 kts 143°
2026-05-07 23:10 -33.65772 -59.74183 31025 ft 497 kts 143°
2026-05-07 23:10 -33.68383 -59.71478 30552 ft 495 kts 143°
2026-05-07 23:10 -33.71011 -59.68757 30058 ft 501 kts 142°
2026-05-07 23:11 -33.73663 -59.66008 29506 ft 506 kts 142°
2026-05-07 23:11 -33.76325 -59.63244 28901 ft 505 kts 142°
2026-05-07 23:11 -33.78972 -59.60490 28305 ft 502 kts 142°
2026-05-07 23:11 -33.81605 -59.57748 27748 ft 500 kts 141°
2026-05-07 23:12 -33.84189 -59.55056 27183 ft 497 kts 141°
2026-05-07 23:12 -33.86795 -59.52338 26623 ft 494 kts 141°
2026-05-07 23:12 -33.89386 -59.49635 26074 ft 491 kts 141°
2026-05-07 23:12 -33.91957 -59.46951 25555 ft 488 kts 141°
2026-05-07 23:13 -33.94521 -59.44273 25028 ft 486 kts 141°
2026-05-07 23:13 -33.97064 -59.41614 24508 ft 483 kts 141°
2026-05-07 23:13 -33.99593 -59.38968 24000 ft 480 kts 141°
2026-05-07 23:13 -34.02103 -59.36339 23515 ft 477 kts 140°
2026-05-07 23:14 -34.04602 -59.33719 22966 ft 474 kts 140°
2026-05-07 23:14 -34.07082 -59.31117 22384 ft 471 kts 140°
2026-05-07 23:14 -34.09548 -59.28528 21811 ft 468 kts 140°
2026-05-07 23:14 -34.11998 -59.25954 21263 ft 465 kts 140°
2026-05-07 23:15 -34.14432 -59.23394 20711 ft 463 kts 140°
2026-05-07 23:15 -34.16855 -59.20844 20058 ft 462 kts 140°
2026-05-07 23:15 -34.19280 -59.18290 19415 ft 463 kts 140°
2026-05-07 23:15 -34.21695 -59.15731 18792 ft 462 kts 138°
2026-05-07 23:16 -34.23872 -59.12884 18145 ft 462 kts 127°
2026-05-07 23:16 -34.25673 -59.09673 17439 ft 461 kts 122°
2026-05-07 23:16 -34.27394 -59.06405 16689 ft 460 kts 122°
2026-05-07 23:16 -34.29095 -59.03136 15977 ft 459 kts 122°
2026-05-07 23:17 -34.30792 -58.99890 15260 ft 452 kts 122°
2026-05-07 23:17 -34.32463 -58.96723 14550 ft 441 kts 122°
2026-05-07 23:17 -34.34103 -58.93641 13868 ft 431 kts 122°
2026-05-07 23:17 -34.35712 -58.90633 13216 ft 421 kts 122°
2026-05-07 23:18 -34.37104 -58.88035 12665 ft 411 kts 122°
2026-05-07 23:18 -34.38646 -58.85159 12029 ft 402 kts 122°
2026-05-07 23:18 -34.40043 -58.82552 11456 ft 395 kts 122°
2026-05-07 23:18 -34.41523 -58.79786 10862 ft 387 kts 122°
2026-05-07 23:19 -34.42986 -58.77078 10277 ft 381 kts 122°
2026-05-07 23:19 -34.44453 -58.74439 9675 ft 375 kts 123°
2026-05-07 23:19 -34.45913 -58.71849 9039 ft 369 kts 123°
2026-05-07 23:19 -34.47339 -58.69334 8419 ft 365 kts 123°
2026-05-07 23:20 -34.48735 -58.66846 8197 ft 349 kts 122°
2026-05-07 23:20 -34.50033 -58.64418 7873 ft 338 kts 121°
2026-05-07 23:20 -34.51267 -58.62057 7587 ft 327 kts 121°
2026-05-07 23:20 -34.52472 -58.59739 7333 ft 323 kts 121°
2026-05-07 23:21 -34.53666 -58.57443 7053 ft 321 kts 121°
2026-05-07 23:21 -34.54855 -58.55162 6777 ft 319 kts 121°
2026-05-07 23:21 -34.56036 -58.52900 6490 ft 315 kts 122°
2026-05-07 23:21 -34.57195 -58.50682 6185 ft 308 kts 122°
2026-05-07 23:22 -34.58333 -58.48505 5862 ft 305 kts 122°
2026-05-07 23:22 -34.59465 -58.46339 5582 ft 301 kts 122°
2026-05-07 23:22 -34.60568 -58.44226 5215 ft 293 kts 122°
2026-05-07 23:22 -34.61651 -58.42152 4828 ft 287 kts 121°
2026-05-07 23:23 -34.62703 -58.40134 4426 ft 279 kts 122°
2026-05-07 23:23 -34.63728 -58.38172 4016 ft 272 kts 122°
2026-05-07 23:23 -34.64724 -58.36288 3610 ft 258 kts 122°
2026-05-07 23:23 -34.65678 -58.34509 3221 ft 247 kts 122°
2026-05-07 23:24 -34.66607 -58.32786 2842 ft 240 kts 122°
2026-05-07 23:24 -34.67460 -58.31165 2851 ft 219 kts 120°
2026-05-07 23:24 -34.68051 -58.29500 2881 ft 211 kts 88°
2026-05-07 23:24 -34.67690 -58.27908 2908 ft 191 kts 40°
2026-05-07 23:25 -34.66622 -58.27214 2921 ft 170 kts 356°
2026-05-07 23:25 -34.65475 -58.27395 2924 ft 166 kts 338°
2026-05-07 23:25 -34.64451 -58.28011 2916 ft 162 kts 322°
2026-05-07 23:25 -34.63694 -58.28943 2893 ft 151 kts 305°
2026-05-07 23:26 -34.63170 -58.30026 2894 ft 149 kts 314°
2026-05-07 23:26 -34.62388 -58.30826 2868 ft 143 kts 319°
2026-05-07 23:26 -34.61631 -58.31647 2260 ft 153 kts 315°
2026-05-07 23:26 -34.60923 -58.32648 1655 ft 157 kts 310°
2026-05-07 23:27 -34.59810 -58.34670 1316 ft 131 kts 306°
2026-05-07 23:27 -34.59310 -58.35572 1186 ft 122 kts 308°
2026-05-07 23:27 -34.58847 -58.36388 1008 ft 116 kts 309°
2026-05-07 23:28 -34.58377 -58.37172 774 ft 115 kts 307°
2026-05-07 23:28 -34.57900 -58.37987 592 ft 124 kts 305°
2026-05-07 23:28 -34.57431 -58.38860 465 ft 125 kts 302°
2026-05-07 23:28 -34.56932 -58.39755 285 ft 123 kts 302°
2026-05-07 23:29 -34.56470 -58.40585 69 ft 116 kts 302°
2026-05-07 23:29 -34.56058 -58.41337 29 ft 95 kts 304°
2026-05-07 23:29 -34.55750 -58.41888 24 ft 67 kts 303°
2026-05-07 23:29 -34.55513 -58.42318 28 ft 51 kts 303°
2026-05-07 23:30 -34.55415 -58.42488 30 ft 12 kts 310°
2026-05-07 23:30 -34.55371 -58.42488 26 ft 6 kts 52°
2026-05-07 23:30 -34.55360 -58.42437 26 ft 6 kts 93°
2026-05-07 23:30 -34.55368 -58.42385 28 ft 6 kts 107°
2026-05-07 23:31 -34.55389 -58.42339 26 ft 6 kts 125°
2026-05-07 23:31 -34.55414 -58.42299 28 ft 6 kts 127°
2026-05-07 23:31 -34.55438 -58.42260 27 ft 6 kts 126°
2026-05-07 23:31 -34.55459 -58.42226 29 ft 6 kts 127°
2026-05-07 23:32 -34.55482 -58.42188 28 ft 6 kts 127°
2026-05-07 23:32 -34.55505 -58.42150 29 ft 5 kts 127°
2026-05-07 23:32 -34.55528 -58.42114 27 ft 5 kts 127°
2026-05-07 23:32 -34.55555 -58.42068 28 ft 11 kts 127°
2026-05-07 23:33 -34.55643 -58.41919 28 ft 29 kts 124°
2026-05-07 23:33 -34.55747 -58.41721 25 ft 27 kts 118°
2026-05-07 23:33 -34.55831 -58.41522 26 ft 26 kts 116°
2026-05-07 23:33 -34.55900 -58.41357 26 ft 3 kts 117°
2026-05-07 23:34 -34.55897 -58.41312 26 ft 12 kts 61°
2026-05-07 23:34 -34.55860 -58.41240 26 ft 6 kts 105°
2026-05-07 23:34 -34.55869 -58.41190 26 ft 7 kts 59°
2026-05-07 23:34 -34.55851 -58.41170 32 ft 0 kts 40°